Overview Statistics Trail Chart Weather Telemetry Raw packets
 

This is the latest recevied weather packets stored in our database for station/object DL4SAV. If no packets are shown the sender has not sent any weather packets the latest 10 day(s).

<< 26 27 28 29 30 31 32 >>
Time Temp. Humidity Pressure Rain* Wind** Luminosity Snow
1788421261 17.78° C 64% 1022.4 hPa 0 mm - - -
1788420961 17.78° C 65% 1022.3 hPa 0 mm - - -
1788420661 17.78° C 65% 1022.4 hPa 0 mm - - -
1788420360 17.78° C 65% 1022.3 hPa 0 mm - - -
1788420060 17.22° C 66% 1022.4 hPa 0 mm - - -
1788419760 17.22° C 68% 1022.3 hPa 0 mm - - -
1788419460 16.67° C 69% 1022.2 hPa 0 mm - - -
1788419159 16.67° C 70% 1022.2 hPa 0 mm - - -
1788418859 16.67° C 71% 1022 hPa 0 mm - - -
1788418559 16.11° C 71% 1022 hPa 0 mm - - -
1788418258 16.11° C 72% 1022 hPa 0 mm - - -
1788417958 16.11° C 74% 1022.1 hPa 0 mm - - -
1788417658 15.56° C 75% 1022.1 hPa 0 mm - - -
1788417358 15.56° C 76% 1021.9 hPa 0 mm - - -
1788417057 15° C 76% 1022.2 hPa 0 mm - - -
1788416757 15° C 77% 1022 hPa 0 mm - - -
1788416457 14.44° C 77% 1022.1 hPa 0 mm - - -
1788416156 14.44° C 77% 1022.3 hPa 0 mm - - -
1788415856 14.44° C 78% 1022.3 hPa 0 mm - - -
1788415556 13.89° C 78% 1022.4 hPa 0 mm - - -
1788415256 13.89° C 79% 1022.4 hPa 0 mm - - -
1788414955 13.89° C 79% 1022.2 hPa 0 mm - - -
1788414655 13.33° C 79% 1022.2 hPa 0 mm - - -
1788414355 13.33° C 79% 1022 hPa 0 mm - - -
1788414054 12.78° C 79% 1022 hPa 0 mm - - -

* Rain latest hour (hover to see other rain measurements)
** Current wind speed in m/s (hover to see current wind gust speed)